{"data":{"norad_id":58736,"intl_designator":"2024-005J","name":"STARLINK-31076","alt_names":[],"object_type":"PAYLOAD","status":"ACTIVE","operator":null,"country":"US","launch_date":"2024-01-07","launch_site_code":"AFETR","launch_vehicle":null,"mission":null,"orbit_class":"UNKNOWN","rcs_meters":null,"size_class":null,"mass_kg":null,"dimensions":null,"purposes":["comms"],"wikipedia_slug":null,"has_3d_model":false,"image_url":null,"decayed_at":null,"tle_current":{"epoch":"2026-09-20T12:37:31.319616Z","epoch_age_seconds":147493,"freshness":"FRESH","line1":"1 58736U 24005J   26263.52605694 -.00000284  00000+0 -81679-6 0  9998","line2":"2 58736  43.0021 199.2196 0000833 269.9040  90.1716 15.27574922150286","mean_motion":15.27574922,"eccentricity":8.33e-5,"inclination_deg":43.0021,"raan_deg":199.2196,"arg_perigee_deg":269.904,"mean_anomaly_deg":90.1716,"bstar":-8.1679e-7,"rev_number":15028,"period_min":94.267062077365,"perigee_km":482.49276337217,"apogee_km":483.63583950899,"semimajor_km":6861.2013014406,"source":"CELESTRAK","updated_at":"2026-09-21T09:00:33.952801Z"}}}